[[{"header":{"parameterUnit":"m.s-1","parameterCategory":1,"la1":30.2991,"la2":30.254,"lo1":-89.0895,"lo2":-89.0444,"dy":0.0017,"dx":0.0017,"nx":28,"ny":28,"refTime":"2024-05-12T03:00:00:Z","depth":0,"parameterNumber":2,"parameterNumberName":"U-component_of_WINDS"},"data":[0,0,0,0,0,0,0,0,0,0,0,0,0,0,0,0,0,0,0,0,0,0,0,0,0,0,0,0,0,0,0,0,0,0,0,0,0,0,0,0,0,0,0,0,0,0,0,0,0,0,0,0,0,0,0,0,0,0,-3.3383,-3.3384,0,-3.3423,-3.3423,-3.3424,-3.3349,-3.3346,-3.3344,-3.3342,-3.3379,-3.3382,-3.3386,0,0,0,0,0,0,0,0,0,0,0,0,0,-3.324,-3.3243,-3.3383,-3.3384,-3.3384,-3.3423,-3.3423,-3.3424,-3.3349,-3.3346,-3.3343,-3.334,-3.3378,-3.3382,-3.3386,0,0,0,0,0,0,0,0,0,0,0,0,0,-3.3293,-3.3244,-3.3383,-3.3352,-3.3349,-3.3423,-3.3423,-3.3424,-3.335,-3.3346,-3.3343,-3.3339,-3.3377,-3.3381,-3.3386,-3.3491,0,0,-3.3401,-3.3404,0,0,0,0,0,0,0,0,-3.329,-3.3298,-3.3356,-3.3354,-3.3352,-3.3377,-3.3386,-3.3446,-3.3351,-3.335,-3.3342,-3.3337,-3.3381,-3.3386,-3.3401,-3.3493,-3.3494,-3.3402,-3.3405,-3.3407,-3.3408,0,0,0,0,0,0,0,-3.3286,-3.3296,-3.3399,-3.3357,-3.3354,-3.3335,-3.3338,-3.3397,-3.3386,-3.3349,-3.3344,-3.335,-3.3379,-3.3396,-3.3401,-3.3495,-3.3402,-3.3406,-3.3409,-3.3411,-3.3672,-3.3676,0,0,0,0,0,0,-3.3287,-3.3293,-3.3398,-3.34,-3.3311,-3.334,-3.3344,-3.3373,-3.3385,-3.3383,-3.3353,-3.3346,-3.339,-3.3396,-3.3402,-3.3524,-3.3407,-3.3412,-3.3414,-3.3669,-3.3673,-3.3678,0,0,0,0,0,0,-3.3284,-3.3297,-3.3396,-3.3345,-3.3356,-3.3347,-3.3379,-3.3375,-3.3392,-3.3388,-3.3385,-3.3373,-3.3387,-3.3395,-3.3469,-3.3524,-3.3414,-3.3418,-3.3664,-3.367,-3.3675,-3.3768,0,0,0,0,0,0,-3.328,-3.3297,-3.3337,-3.3347,-3.3359,-3.3463,-3.3383,-3.3379,-3.3402,-3.3393,-3.3406,-3.3404,-3.3385,-3.3462,-3.3474,-3.3529,-3.3422,-3.3659,-3.3667,-3.3674,-3.376,-3.3777,-3.3791,0,0,0,0,0,-3.3276,-3.3361,-3.3339,-3.3352,-3.341,-3.3467,-3.3474,-3.3451,-3.3406,-3.3446,-3.3443,-3.3404,-3.3517,-3.3471,-3.3483,-3.354,-3.3655,-3.3664,-3.3673,-3.3753,-3.3774,-3.379,0,0,0,0,0,0,-3.3357,-3.3362,-3.3338,-3.343,-3.3449,-3.3454,-3.3503,-3.3473,-3.3504,-3.3495,-3.3464,-3.3468,-3.3547,-3.3551,-3.35,-3.3641,-3.3578,-3.359,-3.3635,-3.3654,-3.3669,-3.3665,-3.3426,0,0,0,0,0,-3.3386,-3.3433,-3.3434,-3.3515,-3.3526,-3.3514,-3.3537,-3.3518,-3.3536,-3.3543,-3.3545,-3.3563,-3.3602,-3.3629,-3.3665,-3.3762,-3.3762,-3.3807,-3.3822,-3.3835,-3.3844,-3.3893,-3.3913,-3.3707,-3.3707,-3.3707,0,0,-3.3445,-3.3454,-3.3485,-3.3532,-3.3544,-3.3591,-3.3521,-3.3574,-3.3608,-3.3551,-3.362,-3.3623,-3.3641,-3.3726,-3.3764,-3.3732,-3.3902,-3.3846,-3.3856,-3.3859,-3.3905,-3.3924,-3.3941,-3.3713,-3.3712,-3.3711,0,0,-3.3577,-3.359,-3.3657,-3.3672,-3.3692,-3.3683,-3.3699,-3.371,-3.3709,-3.3779,-3.3736,-3.3777,-3.3846,-3.3859,-3.3876,-3.4014,-3.3978,-3.4027,-3.4105,-3.4153,-3.4169,-3.4183,-3.423,-3.4247,-3.4037,-3.4037,-3.4037,0,-3.3648,-3.3719,-3.3696,-3.3752,-3.3773,-3.3725,-3.3792,-3.3806,-3.3837,-3.3851,-3.3816,-3.3901,-3.391,-3.3996,-3.403,-3.4046,-3.4062,-3.4023,-3.4169,-3.4183,-3.4196,-3.424,-3.4258,-3.4043,-3.4042,-3.4041,-3.4041,0,-3.3804,-3.3854,-3.3906,-3.3937,-3.3964,-3.4026,-3.401,-3.4041,-3.402,-3.4014,-3.4085,-3.4094,-3.413,-3.415,-3.413,-3.4234,-3.4213,-3.4174,-3.411,-3.4221,-3.4262,-3.4279,-3.4051,-3.4049,-3.4047,-3.4046,0,0,-3.3986,-3.4004,-3.4024,-3.4036,-3.4055,-3.4093,-3.4152,-3.4188,-3.4213,-3.4237,-3.4283,-3.4344,-3.4307,-3.4326,-3.4307,-3.435,-3.4455,-3.4305,-3.4305,-3.433,-3.4567,-3.4594,-3.4614,-3.4433,-3.4436,-3.4439,-3.4564,0,-3.4115,-3.4217,-3.4198,-3.4297,-3.4341,-3.4297,-3.4348,-3.4364,-3.4361,-3.4397,-3.4394,-3.4435,-3.4386,-3.4397,-3.4437,-3.4434,-3.4502,-3.4425,-3.4474,-3.4476,-3.4467,-3.4635,-3.4664,-3.4782,-3.458,-3.4583,-3.4585,0,-3.4278,-3.4308,-3.4412,-3.4422,-3.444,-3.4487,-3.4517,-3.4554,-3.4571,-3.4566,-3.4587,-3.456,-3.4617,-3.4555,-3.4631,-3.458,-3.4599,-3.46,-3.4604,-3.4605,-3.4535,-3.4638,-3.4819,-3.4836,-3.461,-3.4608,-3.4607,0,-3.4397,-3.4463,-3.4533,-3.4546,-3.4561,-3.4594,-3.4602,-3.4616,-3.4638,-3.4666,-3.468,-3.4714,-3.4731,-3.4757,-3.4739,-3.4696,-3.4818,-3.4755,-3.4813,-3.4814,-3.4838,-3.4836,-3.5022,-3.4857,-3.4856,-3.4856,-3.4856,0,-3.454,-3.4605,-3.4586,-3.4629,-3.4699,-3.4677,-3.4746,-3.4749,-3.4762,-3.4803,-3.4767,-3.4806,-3.4782,-3.4819,-3.4806,-3.487,-3.4879,-3.4874,-3.4869,-3.4876,-3.4876,-3.4885,-3.4875,-3.4861,-3.486,-3.4859,-3.4858,0,-3.4683,-3.4674,-3.4747,-3.4756,-3.4759,-3.481,-3.4817,-3.4856,-3.4851,-3.4904,-3.4915,-3.4906,-3.4948,-3.4934,-3.4978,-3.4969,-3.505,-3.5036,-3.5044,-3.5039,-3.5097,-3.509,-3.5292,-3.5317,-3.5139,-3.5141,-3.5142,0,-3.4774,-3.4822,-3.4837,-3.4862,-3.4873,-3.4915,-3.4938,-3.4918,-3.4943,-3.4966,-3.5002,-3.5041,-3.507,-3.5139,-3.5135,-3.5169,-3.5154,-3.5222,-3.5158,-3.5162,-3.5151,-3.5147,-3.515,-3.5234,-3.5236,-3.5238,-3.5239,0,-3.4935,-3.4928,-3.4963,-3.4997,-3.5026,-3.5051,-3.5073,-3.5096,-3.5077,-3.5107,-3.515,-3.5173,-3.5219,-3.5257,-3.5287,-3.5293,-3.5262,-3.526,-3.5274,-3.5279,-3.528,-3.5277,-3.5075,-3.5254,-3.5253,-3.5252,-3.5251,-3.525,-3.5052,-3.5092,-3.5108,-3.5148,-3.5163,-3.5185,-3.5221,-3.5221,-3.5257,-3.5292,-3.5279,-3.5327,-3.5342,-3.538,-3.5391,-3.5427,-3.54,-3.5422,-3.5427,-3.5432,-3.5438,-3.5278,-3.5433,-3.5433,-3.5432,-3.5432,-3.5431,0,-3.5208,-3.5216,-3.5254,-3.5286,-3.5317,-3.5288,-3.5311,-3.5338,-3.5382,-3.5399,-3.5429,-3.5477,-3.5514,-3.5515,-3.5549,-3.5578,-3.5564,-3.5587,-3.5582,-3.5584,-3.5462,-3.5444,-3.5597,-3.5597,-3.5597,-3.5597,-3.5597,-3.5597,-3.5292,-3.5358,-3.5353,-3.5425,-3.5433,-3.5481,-3.5496,-3.5515,-3.5529,-3.5584,-3.5615,-3.5616,-3.5626,-3.566,-3.5692,-3.5691,-3.5703,-3.5731,-3.5724,-3.5609,-3.5593,-3.5577,-3.556,-3.5735,-3.5735,-3.5843,-3.5844,-3.5845]},{"header":{"parameterUnit":"m.s-1","parameterCategory":1,"la1":30.2991,"la2":30.254,"lo1":-89.0895,"lo2":-89.0444,"dy":0.0017,"dx":0.0017,"nx":28,"ny":28,"refTime":"2024-05-12T03:00:00:Z","depth":0,"parameterNumber":3,"parameterNumberName":"V-component_of_WINDS"},"data":[0,0,0,0,0,0,0,0,0,0,0,0,0,0,0,0,0,0,0,0,0,0,0,0,0,0,0,0,0,0,0,0,0,0,0,0,0,0,0,0,0,0,0,0,0,0,0,0,0,0,0,0,0,0,0,0,0,0,-1.6083,-1.6084,0,-1.6154,-1.6155,-1.6156,-1.6164,-1.6163,-1.6162,-1.6162,-1.6232,-1.6235,-1.6237,0,0,0,0,0,0,0,0,0,0,0,0,0,-1.5953,-1.5955,-1.6083,-1.6084,-1.6085,-1.6154,-1.6155,-1.6156,-1.6164,-1.6163,-1.6162,-1.6161,-1.6232,-1.6235,-1.6238,0,0,0,0,0,0,0,0,0,0,0,0,0,-1.6015,-1.5956,-1.6083,-1.6097,-1.6099,-1.6154,-1.6155,-1.6156,-1.6164,-1.6163,-1.6162,-1.6161,-1.6231,-1.6234,-1.6238,-1.6282,0,0,-1.625,-1.6251,0,0,0,0,0,0,0,0,-1.6012,-1.602,-1.6094,-1.6096,-1.6099,-1.6149,-1.6135,-1.6198,-1.6164,-1.6139,-1.6162,-1.6161,-1.6205,-1.6211,-1.6227,-1.6286,-1.6289,-1.625,-1.6252,-1.6254,-1.6255,0,0,0,0,0,0,0,-1.6007,-1.6017,-1.6111,-1.6095,-1.6098,-1.61,-1.6107,-1.6147,-1.6177,-1.6142,-1.6142,-1.6151,-1.6206,-1.6223,-1.6228,-1.629,-1.625,-1.6253,-1.6256,-1.6257,-1.6387,-1.6389,0,0,0,0,0,0,-1.6001,-1.6013,-1.6109,-1.6113,-1.6052,-1.6103,-1.6111,-1.6134,-1.6177,-1.6183,-1.6151,-1.6151,-1.6217,-1.6224,-1.6231,-1.6285,-1.6254,-1.6257,-1.626,-1.6386,-1.6388,-1.6389,0,0,0,0,0,0,-1.5998,-1.6009,-1.6106,-1.6064,-1.6076,-1.6106,-1.6131,-1.6136,-1.6153,-1.6185,-1.619,-1.6163,-1.6217,-1.6226,-1.6269,-1.6287,-1.6259,-1.6263,-1.6385,-1.6387,-1.6388,-1.6394,0,0,0,0,0,0,-1.5994,-1.6008,-1.6026,-1.6064,-1.6078,-1.6144,-1.6133,-1.6138,-1.6159,-1.6159,-1.6197,-1.6202,-1.6216,-1.6264,-1.6273,-1.6292,-1.6266,-1.6383,-1.6386,-1.6388,-1.6392,-1.6395,-1.6398,0,0,0,0,0,-1.5989,-1.6024,-1.6027,-1.6038,-1.6101,-1.6145,-1.6153,-1.617,-1.6161,-1.6178,-1.6199,-1.6201,-1.6284,-1.6268,-1.6279,-1.6299,-1.6382,-1.6385,-1.6388,-1.639,-1.6395,-1.6398,0,0,0,0,0,0,-1.5987,-1.6029,-1.6033,-1.6081,-1.6109,-1.6146,-1.6169,-1.6174,-1.6205,-1.6203,-1.6221,-1.623,-1.6273,-1.629,-1.6272,-1.6344,-1.6332,-1.6337,-1.6331,-1.6335,-1.6338,-1.6333,-1.6269,0,0,0,0,0,-1.5992,-1.6025,-1.606,-1.6099,-1.6113,-1.6139,-1.6159,-1.6169,-1.6199,-1.621,-1.6234,-1.6263,-1.6295,-1.6316,-1.6348,-1.6395,-1.6402,-1.6414,-1.6417,-1.6419,-1.6423,-1.6448,-1.6454,-1.6398,-1.6398,-1.6398,0,0,-1.6003,-1.603,-1.605,-1.61,-1.6123,-1.6155,-1.6149,-1.6184,-1.6208,-1.6216,-1.6258,-1.6277,-1.6309,-1.6355,-1.6376,-1.6371,-1.6441,-1.6423,-1.6425,-1.6427,-1.6452,-1.6457,-1.6462,-1.64,-1.6399,-1.6399,0,0,-1.6039,-1.6064,-1.6099,-1.6122,-1.6157,-1.6174,-1.6182,-1.6219,-1.6231,-1.6275,-1.6281,-1.6309,-1.6365,-1.6388,-1.6407,-1.6451,-1.6454,-1.6461,-1.6478,-1.6502,-1.6506,-1.651,-1.6525,-1.6531,-1.6465,-1.6465,-1.6465,0,-1.6048,-1.6099,-1.6116,-1.6151,-1.6172,-1.6181,-1.6216,-1.6238,-1.6281,-1.6295,-1.6289,-1.6359,-1.6382,-1.6432,-1.6443,-1.6458,-1.6467,-1.6457,-1.6504,-1.6508,-1.6512,-1.6527,-1.6533,-1.6466,-1.6466,-1.6466,-1.6466,0,-1.6107,-1.6142,-1.6166,-1.6208,-1.6232,-1.6267,-1.6289,-1.6311,-1.6319,-1.6336,-1.6379,-1.6407,-1.6444,-1.6456,-1.6465,-1.6508,-1.6503,-1.6501,-1.6489,-1.6518,-1.6532,-1.6538,-1.6467,-1.6466,-1.6466,-1.6466,0,0,-1.6144,-1.6195,-1.6204,-1.6223,-1.6262,-1.6289,-1.6323,-1.636,-1.6378,-1.6408,-1.6437,-1.6484,-1.6481,-1.6503,-1.6513,-1.6535,-1.6567,-1.6529,-1.653,-1.6535,-1.6615,-1.6617,-1.6623,-1.6569,-1.657,-1.6571,-1.6612,0,-1.6184,-1.6247,-1.6264,-1.6317,-1.6348,-1.6357,-1.6387,-1.6414,-1.643,-1.6459,-1.6477,-1.651,-1.6504,-1.6517,-1.6539,-1.6559,-1.6583,-1.6556,-1.6596,-1.6597,-1.6586,-1.663,-1.6632,-1.6669,-1.6618,-1.6619,-1.662,0,-1.624,-1.6271,-1.6327,-1.6362,-1.6376,-1.6402,-1.6437,-1.6465,-1.6495,-1.6505,-1.6529,-1.6538,-1.6573,-1.656,-1.6609,-1.659,-1.6607,-1.6619,-1.6621,-1.6625,-1.6609,-1.6635,-1.6682,-1.6687,-1.6629,-1.6628,-1.6627,0,-1.626,-1.6316,-1.6357,-1.6373,-1.6414,-1.6433,-1.6451,-1.648,-1.6501,-1.6531,-1.6544,-1.6578,-1.6596,-1.6622,-1.6639,-1.6628,-1.6686,-1.6674,-1.6695,-1.6694,-1.6706,-1.6705,-1.6756,-1.6718,-1.6718,-1.6718,-1.6718,0,-1.6303,-1.6337,-1.6366,-1.6391,-1.6429,-1.6447,-1.6484,-1.6502,-1.6528,-1.6556,-1.6565,-1.6591,-1.6612,-1.6641,-1.6655,-1.6692,-1.6701,-1.6709,-1.6712,-1.6708,-1.6707,-1.6719,-1.6717,-1.6719,-1.6719,-1.6719,-1.6719,0,-1.6332,-1.6353,-1.6398,-1.6433,-1.6443,-1.6469,-1.6499,-1.6524,-1.654,-1.6576,-1.6585,-1.6611,-1.6645,-1.6665,-1.6708,-1.6716,-1.6758,-1.676,-1.6748,-1.6749,-1.6768,-1.6766,-1.6828,-1.6837,-1.6794,-1.6794,-1.6795,0,-1.6357,-1.6384,-1.6422,-1.6442,-1.646,-1.6492,-1.6513,-1.6532,-1.6554,-1.659,-1.6609,-1.6644,-1.6673,-1.6726,-1.6749,-1.6781,-1.6784,-1.6804,-1.6789,-1.6784,-1.6783,-1.6781,-1.6784,-1.6806,-1.6806,-1.6807,-1.6807,0,-1.64,-1.641,-1.644,-1.6474,-1.65,-1.6527,-1.6555,-1.657,-1.6593,-1.6617,-1.6652,-1.6674,-1.6718,-1.6752,-1.6786,-1.6804,-1.6809,-1.6811,-1.6818,-1.6813,-1.6805,-1.6809,-1.6754,-1.681,-1.6809,-1.6809,-1.6809,-1.6809,-1.6428,-1.6451,-1.6482,-1.6516,-1.6538,-1.6564,-1.6588,-1.6608,-1.6637,-1.6675,-1.6684,-1.6721,-1.675,-1.6796,-1.6815,-1.6843,-1.684,-1.6849,-1.6851,-1.6853,-1.6853,-1.6801,-1.685,-1.685,-1.685,-1.685,-1.685,0,-1.6471,-1.6491,-1.6522,-1.656,-1.6586,-1.6589,-1.6619,-1.6641,-1.6673,-1.67,-1.6728,-1.6768,-1.6801,-1.6826,-1.6859,-1.6877,-1.688,-1.6885,-1.6884,-1.6888,-1.6855,-1.6846,-1.6882,-1.6882,-1.6882,-1.6882,-1.6882,-1.6882,-1.6496,-1.6535,-1.6548,-1.6599,-1.6618,-1.6655,-1.6672,-1.6695,-1.6716,-1.6761,-1.6788,-1.6804,-1.683,-1.6866,-1.6896,-1.6902,-1.6914,-1.6918,-1.6925,-1.6894,-1.689,-1.6887,-1.6878,-1.6921,-1.6921,-1.6955,-1.6955,-1.6956]}]]